This demonstration page uses our WeatherBlox Daily Observations layout. Learn more.

Left ArrowRight Arrow

38.89511, -77.03637

Hourly Observations for November 22, 2015

Temp ( °F °C ) Dew Point ( °F °C ) Humidity (%) Winds ( mph kmh ) Pressure ( in mb ) Visibility ( mi km ) Precip ( " mm )
12:52 am 00:52 Mostly Cloudy 47 8.3 44 6.7 90 90 SSW 6 9 29.91 1013 10 16 0.00 0.00
1:52 am 01:52 Mostly Cloudy 46 7.8 44 6.7 93 93 SSW 6 9 29.92 1013 10 16 0.00 0.00
2:52 am 02:52 Mostly Cloudy 47 8.3 41 5 80 80 WSW 6 9 29.92 1013 10 16 0.00 0.00
3:52 am 03:52 Mostly Cloudy 47 8.3 34 1.1 61 61 WSW 6 9 29.91 1013 10 16 0.00 0.00
4:52 am 04:52 Cloudy 47 8.3 32 0 56 56 Calm 29.95 1014 10 16 0.00 0.00
5:52 am 05:52 Cloudy 48 8.9 32 0 54 54 NNW 14 22 29.97 1015 10 16 0.00 0.00
6:52 am 06:52 Cloudy 47 8.3 32 0 56 56 NNW 13 20 30.00 1016 10 16 0.00 0.00
7:52 am 07:52 Cloudy 47 8.3 30 -1.1 52 52 NW 20 31 30.04 1017 10 16 0.00 0.00
8:52 am 08:52 Mostly Cloudy 47 8.3 29 -1.7 50 50 NNW 17 28 30.04 1017 10 16 0.00 0.00
9:52 am 09:52 Mostly Cloudy 47 8.3 26 -3.3 44 44 NNW 22 35 30.06 1018 10 16 0.00 0.00
10:52 am 10:52 Mostly Cloudy 47 8.3 25 -3.9 42 42 NNW 20 31 30.05 1018 10 16 0.00 0.00
11:52 am 11:52 Mostly Cloudy 48 8.9 24 -4.4 39 39 NNW 20 31 30.02 1017 10 16 0.00 0.00
12:52 pm 12:52 Mostly Cloudy 47 8.3 26 -3.3 44 44 N 20 31 30.00 1016 10 16 0.00 0.00
1:52 pm 13:52 Mostly Cloudy 47 8.3 27 -2.8 46 46 NW 16 26 30.00 1016 10 16 0.00 0.00
2:52 pm 14:52 Mostly Cloudy 46 7.8 25 -3.9 44 44 NNW 20 31 30.01 1016 10 16 0.00 0.00
3:52 pm 15:52 Mostly Cloudy 46 7.8 22 -5.6 38 38 NNW 16 26 30.00 1016 10 16 0.00 0.00
4:52 pm 16:52 Mostly Cloudy 46 7.8 23 -5 40 40 N 17 28 30.00 1016 10 16 0.00 0.00
5:52 pm 17:52 Partly Cloudy 44 6.7 22 -5.6 41 41 NW 15 24 30.02 1017 10 16 0.00 0.00
6:52 pm 18:52 Partly Cloudy 42 5.6 22 -5.6 45 45 NNW 20 31 30.02 1017 10 16 0.00 0.00
7:52 pm 19:52 Mostly Clear 41 5 22 -5.6 47 47 NNW 14 22 30.03 1017 10 16 0.00 0.00
8:52 pm 20:52 Mostly Clear 40 4.4 22 -5.6 49 49 NNW 14 22 30.04 1017 10 16 0.00 0.00
9:52 pm 21:52 Clear 39 3.9 20 -6.7 46 46 NW 15 24 30.04 1017 10 16 0.00 0.00
10:52 pm 22:52 Clear 38 3.3 20 -6.7 48 48 NNW 20 31 30.06 1018 10 16 0.00 0.00
11:52 pm 23:52 Clear 37 2.8 21 -6.1 52 52 NNW 10 17 30.07 1018 10 16 0.00 0.00

Powered by AerisWeather